Home   Weather   Iráklion   Past weeks

Flag for Greece Past Weather in Iráklion, Crete, Greece — Yesterday and Last 2 Weeks

Now
50 °F

Passing clouds.


Feels Like: 45 °F
Forecast: 42 / 55 °F
Wind: 14 mph from North

Location: Heraklion Airport

Current Time: Jan 22, 2017 at 12:04:55 am

Latest Report: Jan 21, 2017 at 11:20 pm


Visibility: N/A

Pressure: 30.30 "Hg

Humidity: 76%

Dew Point: 43 °F

Location of IráklionLocation

Past Weather in Iráklion — Graph

°F

Iráklion Temperature Yesterday

Maximum temperature yesterday: 54 °F (at 10:50 am)
Minimum temperature yesterday: 50 °F (at 7:20 am)
Average temperature yesterday: 52 °F

High & Low Weather Summary for the Past Weeks

 TemperatureHumidityPressure
High66 °F (Jan 14, 1:50 pm)100% (Jan 8, 11:50 am)30.33 "Hg (Jan 8, 11:50 am)
Low32 °F (Jan 9, 4:50 am)42% (Jan 13, 11:50 am)29.62 "Hg (Jan 6, 10:50 pm)
Average51 °F72%30.00 "Hg
* Reported Jan 6 10:50 pm — Jan 21 10:50 pm, Iráklion, Weather by CustomWeather, © 2017

Note: Actual official high and low records may vary slightly from our data, if they occured in-between our weather recording intervals... More about our weather records

Advertising

Iráklion Weather History for the Previous 24 Hours

Scroll right to see more
 ConditionsComfort  
Time TempWeatherWind HumidityBarometerVisibility
10:50 pm
Sat, Jan 21
50 °FPassing clouds.14 mph76%30.30 "HgN/A
10:20 pm52 °FPassing clouds.14 mph77%30.33 "HgN/A
9:50 pm52 °FPassing clouds.14 mph77%30.33 "HgN/A
9:20 pm52 °FPassing clouds.14 mph77%30.30 "HgN/A
8:50 pm52 °FPassing clouds.13 mph77%30.30 "HgN/A
7:50 pm52 °FPassing clouds.13 mph77%30.30 "HgN/A
7:20 pm52 °FPassing clouds.12 mph67%30.30 "HgN/A
6:50 pm52 °FPassing clouds.13 mph67%30.30 "HgN/A
6:20 pm52 °FPassing clouds.13 mph67%30.27 "HgN/A
5:50 pm52 °FPassing clouds.13 mph67%30.27 "HgN/A
5:20 pm52 °FPartly sunny.12 mph67%30.27 "HgN/A
4:50 pm52 °FPartly sunny.12 mph67%30.27 "HgN/A
4:20 pm54 °FPartly sunny.15 mph63%30.27 "HgN/A
3:50 pm54 °FPartly sunny.16 mph63%30.27 "HgN/A
3:20 pm54 °FPartly sunny.16 mph63%30.27 "HgN/A
2:50 pm54 °FPartly sunny.14 mph63%30.27 "HgN/A
2:20 pm54 °FPartly sunny.14 mph63%30.27 "HgN/A
1:50 pm54 °FPartly sunny.14 mph63%30.27 "HgN/A
1:20 pm54 °FPartly sunny.14 mph58%30.27 "HgN/A
12:50 pm54 °FPartly sunny.14 mph58%30.27 "HgN/A
12:20 pm54 °FPartly sunny.16 mph58%30.30 "HgN/A
11:50 am54 °FPartly sunny.16 mph58%30.30 "HgN/A
11:20 am54 °FPartly sunny.13 mph58%30.30 "HgN/A
10:50 am54 °FPartly sunny.13 mph58%30.30 "HgN/A
10:20 am52 °FPartly sunny.13 mph62%30.30 "HgN/A
9:50 am52 °FPartly sunny.14 mph62%30.30 "HgN/A
9:20 am52 °FPartly sunny.15 mph62%30.30 "HgN/A
8:50 am52 °FPartly sunny.16 mph62%30.30 "HgN/A
8:20 am52 °FPartly sunny.13 mph67%30.30 "HgN/A
7:50 am52 °FPartly sunny.13 mph67%30.30 "HgN/A
7:20 am50 °FPassing clouds.13 mph76%30.30 "HgN/A
6:50 am52 °FLight rain. Passing clouds.14 mph67%30.30 "HgN/A
6:20 am52 °FLight rain. Passing clouds.13 mph67%30.30 "HgN/A
5:50 am52 °FPassing clouds.14 mph67%30.30 "HgN/A
5:20 am52 °FPassing clouds.17 mph67%30.33 "HgN/A
4:50 am52 °FPassing clouds.18 mph67%30.33 "HgN/A
3:20 am52 °FPassing clouds.15 mph62%30.33 "HgN/A
2:50 am52 °FPassing clouds.16 mph62%30.33 "HgN/A
2:20 am52 °FPassing clouds.16 mph62%30.33 "HgN/A
1:50 am52 °FPassing clouds.16 mph62%30.33 "HgN/A
1:20 am52 °FPassing clouds.15 mph72%30.33 "HgN/A
12:50 am52 °FPassing clouds.17 mph72%30.33 "HgN/A
12:20 am52 °FPassing clouds.18 mph72%30.33 "HgN/A
Weather by CustomWeather, © 2017

See weather overviewHow to use our weather pages